星链-31596 (STARLINK-31596 )

导读

STARLINK-31596是美国SpaceX星链互联网星座的成员卫星,于2024年3月25日发射升空。星链计划旨在通过近地轨道卫星群提供全球高速互联网接入服务,该卫星服役后进一步扩充了星链星座的规模,增强星座网络覆盖密度与服务稳定性,为全球用户提供更低时延的卫星互联网服务。

基本信息
目录编号:
59336
目录名称:
STARLINK-31596
国际标识:
2024-057S
轨道中心:
EARTH
卫星名称:
星链-31596
卫星全名:
星链-31596 (STARLINK-31596 )
卫星状态:
在轨 (已飞行815 天)
发射日期:
2024-03-25 UTC
国别 :
美国 (US)
星等 :
--
轨道信息
数据来源 国际轨道数据
星历时间: 2026-06-17T13:10:55+0800
22小时前
查看轨道信息
半长轴: 6861.168km
偏心率: 0.0002166
轨道倾角: 43.008°
近地点辐角 270.610°
升交点赤经 344.717°
平近点角 89.450°
近地点: 481.544km
远地点: 484.518km
周期: 94.266分钟
每日圈数: 15.275862
详细信息
固有亮度:
5
最大亮度:
0.3
卫星平台:
Starlink v2.0 mini
覆盖范围:
全球
运营商:
太空探索技术公司
运营商所在国:
美国
制造商(研发单位):
太空探索技术公司
制造商所在国:
美国
使用方式:
暂无
卫星简介
星链(Starlink)计划是由太空探索技术公司(SpaceX)提出的一个巨型低轨卫星互联网星座项目,计划在2019年至2024年间在太空搭建由约1.2万颗卫星组成的“星链”网络,其中1584颗将部署在地球上空550千米处的近地轨道,并从2020年开始工作。该卫星仍在工作。
2D轨道图
3D轨道图
轨道高度分析图
轨道倾角分析图
轨道综合分析图
查看轨道综合分析图